Weather History for San Jose, Costa Rica

Change the Weather History Date:

Saturday, January 5, 2013

  Actual Average Record
Temperature  
Mean Temperature 74 °F -  
Max Temperature 80 °F 80 °F 86 °F (1998)
Min Temperature 67 °F 63 °F 60 °F (1997)
Cooling Degree Days 8    
Growing Degree Days 24 (Base 50)    
Moisture  
Dew Point 56 °F    
Average Humidity 53    
Maximum Humidity 68    
Minimum Humidity 29    
Precipitation  
Precipitation 0.00 in 0.01 in - ()
Sea Level Pressure  
Sea Level Pressure 29.97 in    
Wind  
Wind Speed 12 mph ()    
Max Wind Speed 23 mph    
Max Gust Speed 34 mph    
Visibility 8.0 miles    
Events      
Averages and records for this station are not official NWS values.
T = Trace of Precipitation, MM = Missing Value Source: Averaged Metar Reports

Daily Weather History Graph

Daily Weather History Graph

Search for Another Location

Airport:

Trip Planner

Search our weather history database for the weather conditions in past years. The results will help you decide how hot, cold, wet, or windy it might be!

Date:

Astronomy

Jan. 05, 2013 Rise Set
Actual Time 5:55 AM CST 5:29 PM CST
Civil Twilight 5:32 AM CST 5:52 PM CST
Nautical Twilight 5:06 AM CST 6:18 PM CST
Astronomical Twilight 4:40 AM CST 6:44 PM CST
Moon No Moon Rise 11:47 AM CST (1/5)
Length of Visible Light 12h 19m
Length of Day
11h 34m
Last Quarter, 44% of the Moon is Illuminated
Jan 5
Last Quarter
Jan 11
New
Jan 18
First Quarter
Jan 26
Full
Feb 3
Last Quarter

Hourly Weather History & Observations

Time (CST) Temp. Heat Index Dew Point Humidity Pressure Visibility Wind Dir Wind Speed Gust Speed Precip Events Conditions
12:00 AM 69 °F - 55 °F 51% 29.82 in 12 mi East 9.2 mph - -  
12:00 AM 68.0 °F - 55.4 °F 64% 30.01 in - East 9.2 mph - N/A   Clear
1:00 AM 68.0 °F - 55.4 °F 64% 30.01 in - East 10.4 mph - N/A   Clear
2:00 AM 68.0 °F - 53.6 °F 60% 29.99 in - East 9.2 mph - N/A   Clear
3:00 AM 68.0 °F - 55.4 °F 64% 29.97 in - East 10.4 mph - N/A   Clear
4:00 AM 68.0 °F - 57.2 °F 68% 29.99 in - East 13.8 mph 25.3 mph N/A   Clear
5:00 AM 68.0 °F - 57.2 °F 68% 30.00 in - East 12.7 mph - N/A   Clear
6:00 AM 67 °F - 58 °F 65% 29.87 in 12 mi East 12.7 mph - -   Scattered Clouds
6:00 AM 68.0 °F - 57.2 °F 68% 30.02 in 6.2 mi East 12.7 mph 26.5 mph N/A   Partly Cloudy
7:00 AM 69.8 °F - 57.2 °F 64% 30.04 in - East 15.0 mph 26.5 mph N/A   Clear
8:00 AM 73.4 °F - 57.2 °F 57% 30.05 in - East 15.0 mph 27.6 mph N/A   Clear
9:00 AM 78 °F - 56 °F 36% 29.88 in 12 mi East 15.0 mph - -   Clear
9:00 AM 77.0 °F - 55.4 °F 47% 30.06 in - East 15.0 mph 26.5 mph N/A   Clear
10:00 AM 78.8 °F - 55.4 °F 44% 30.06 in - East 15.0 mph 26.5 mph N/A   Clear
11:00 AM 80.6 °F 80.5 °F 55.4 °F 42% 30.04 in - ENE 12.7 mph 24.2 mph N/A   Clear
12:00 PM 80 °F - 53 °F 29% 29.85 in 12 mi ENE 18.4 mph - -   Scattered Clouds
12:00 PM 80.6 °F 80.3 °F 53.6 °F 39% 30.02 in 6.2 mi ENE 18.4 mph 29.9 mph N/A   Partly Cloudy
1:00 PM 80.6 °F 80.5 °F 55.4 °F 42% 29.99 in 6.2 mi ENE 18.4 mph 29.9 mph N/A   Partly Cloudy
2:00 PM 80.6 °F 80.5 °F 55.4 °F 42% 29.96 in 6.2 mi ENE 18.4 mph 31.1 mph N/A   Partly Cloudy
3:00 PM 80 °F - 54 °F 31% 29.78 in 12 mi NE 23.0 mph - -   Scattered Clouds
3:00 PM 80.6 °F 80.5 °F 55.4 °F 42% 29.94 in 6.2 mi NE 23.0 mph 34.5 mph N/A   Partly Cloudy
4:00 PM 78.8 °F - 53.6 °F 42% 29.94 in 6.2 mi ENE 19.6 mph 31.1 mph N/A   Partly Cloudy
5:00 PM 75.2 °F - 55.4 °F 50% 29.96 in 6.2 mi ENE 16.1 mph 27.6 mph N/A   Partly Cloudy
6:00 PM 71.6 °F - 57.2 °F 60% 29.96 in 6.2 mi ENE 12.7 mph 24.2 mph N/A   Partly Cloudy
7:00 PM 71.6 °F - 55.4 °F 57% 29.98 in 6.2 mi East 12.7 mph 24.2 mph N/A   Partly Cloudy
8:00 PM 71.6 °F - 55.4 °F 57% 29.99 in 6.2 mi ENE 17.3 mph 28.8 mph N/A   Partly Cloudy
9:00 PM 71 °F - 56 °F 48% 29.85 in 12 mi East 11.5 mph - -   Scattered Clouds
9:00 PM 71.6 °F - 55.4 °F 57% 30.01 in 6.2 mi East 11.5 mph 23.0 mph N/A   Partly Cloudy
10:00 PM 69.8 °F - 55.4 °F 60% 30.01 in 6.2 mi East 13.8 mph 27.6 mph N/A   Partly Cloudy
11:00 PM 69.8 °F - 57.2 °F 64% 30.00 in 6.2 mi East 12.7 mph 24.2 mph N/A   Partly Cloudy